�N����,����,�g�[���i���ԁj���x,�g�[�����x,��g�[���i���ցj���x,����
 2004/12/01, 0:00,18.7,55,16.1,16.1
 2004/12/01, 0:15,18.5,55,16.1,16.1
 2004/12/01, 0:30,18.3,55,16.1,16.1
 2004/12/01, 0:45,18,55,16.1,16.1
 2004/12/01, 1:00,17.8,55,16.1,16.1
 2004/12/01, 1:15,17.6,55,16.1,16.1
 2004/12/01, 1:30,17.3,55,16.1,16.1
 2004/12/01, 1:45,17.1,55,16,16
 2004/12/01, 2:00,17.1,55,15.9,15.9
 2004/12/01, 2:15,16.9,55,15.9,15.9
 2004/12/01, 2:30,16.7,55,15.8,15.8
 2004/12/01, 2:45,16.5,56,15.7,15.7
 2004/12/01, 3:00,16.3,56,15.6,15.6
 2004/12/01, 3:15,16.2,56,15.5,15.5
 2004/12/01, 3:30,16.2,56,15.4,15.4
 2004/12/01, 3:45,16.1,56,15.3,15.3
 2004/12/01, 4:00,16,56,15.2,15.2
 2004/12/01, 4:15,15.8,57,15.2,15.2
 2004/12/01, 4:30,15.7,57,15.1,15.1
 2004/12/01, 4:45,15.6,57,15,15
 2004/12/01, 5:00,15.5,57,14.9,14.9
 2004/12/01, 5:15,15.4,57,14.9,14.9
 2004/12/01, 5:30,15.3,57,14.8,14.8
 2004/12/01, 5:45,15.1,58,14.7,14.7
 2004/12/01, 6:00,15.1,57,14.7,14.7
 2004/12/01, 6:15,15,57,14.6,14.6
 2004/12/01, 6:30,14.9,58,14.5,14.5
 2004/12/01, 6:45,15.2,63,14.5,14.5
 2004/12/01, 7:00,16.1,62,14.8,14.8
 2004/12/01, 7:15,17,61,14.9,14.9
 2004/12/01, 7:30,18.7,58,14.9,14.9
 2004/12/01, 7:45,19.4,56,15,15
 2004/12/01, 8:00,19.8,52,15,15
 2004/12/01, 8:15,20.5,52,15.1,15.1
 2004/12/01, 8:30,20.8,51,15.3,15.3
 2004/12/01, 8:45,20.9,51,15.4,15.4
 2004/12/01, 9:00,20.7,51,15.5,15.5
 2004/12/01, 9:15,20.2,52,15.6,15.6
 2004/12/01, 9:30,20.2,52,15.7,15.7
 2004/12/01, 9:45,20.3,52,15.8,15.8
 2004/12/01,10:00,20.4,52,15.9,15.9
 2004/12/01,10:15,20.5,52,16.1,16.1
 2004/12/01,10:30,20.8,52,16.2,16.2
 2004/12/01,10:45,21,51,16.5,16.5
 2004/12/01,11:00,21.2,54,16.7,16.7
 2004/12/01,11:15,21.5,53,16.8,16.8
 2004/12/01,11:30,21.5,53,17.1,17.1
 2004/12/01,11:45,21.7,53,17.1,17.1
 2004/12/01,12:00,21.9,53,17,17
 2004/12/01,12:15,21.9,52,16.9,16.9
 2004/12/01,12:30,22.1,52,16.9,16.9
 2004/12/01,12:45,22.1,52,16.8,16.8
 2004/12/01,13:00,22.2,51,16.8,16.8
 2004/12/01,13:15,22.2,51,16.8,16.8
 2004/12/01,13:30,22.2,51,16.8,16.8
 2004/12/01,13:45,22.2,51,16.7,16.7
 2004/12/01,14:00,22,51,16.8,16.8
 2004/12/01,14:15,21.9,51,16.7,16.7
 2004/12/01,14:30,21.9,51,16.8,16.8
 2004/12/01,14:45,21.9,51,16.8,16.8
 2004/12/01,15:00,21.7,51,16.8,16.8
 2004/12/01,15:15,21.6,51,16.8,16.8
 2004/12/01,15:30,21.3,50,16.8,16.8
 2004/12/01,15:45,21.1,51,16.8,16.8
 2004/12/01,16:00,21,51,16.8,16.8
 2004/12/01,16:15,20.9,52,16.8,16.8
 2004/12/01,16:30,20.7,52,16.7,16.7
 2004/12/01,16:45,20.6,53,16.8,16.8
 2004/12/01,17:00,20.3,49,16.7,16.7
 2004/12/01,17:15,20.2,51,16.7,16.7
 2004/12/01,17:30,20.1,50,16.8,16.8
 2004/12/01,17:45,20,51,16.9,16.9
 2004/12/01,18:00,19.9,51,16.9,16.9
 2004/12/01,18:15,19.8,52,16.6,16.6
 2004/12/01,18:30,20,54,16.4,16.4
 2004/12/01,18:45,20.1,55,16.2,16.2
 2004/12/01,19:00,20.1,54,16.1,16.1
 2004/12/01,19:15,20.1,54,16,16
 2004/12/01,19:30,20.1,54,15.9,15.9
 2004/12/01,19:45,19.9,54,15.8,15.8
 2004/12/01,20:00,19.7,54,15.7,15.7
 2004/12/01,20:15,19.6,54,15.6,15.6
 2004/12/01,20:30,19.5,54,15.6,15.6
 2004/12/01,20:45,19.2,54,15.5,15.5
 2004/12/01,21:00,19.2,54,15.4,15.4
 2004/12/01,21:15,19.2,54,15.4,15.4
 2004/12/01,21:30,19,54,15.4,15.4
 2004/12/01,21:45,18.8,53,15.3,15.3
 2004/12/01,22:00,18.9,53,15.2,15.2
 2004/12/01,22:15,18.9,52,15.1,15.1
 2004/12/01,22:30,18.9,52,15.1,15.1
 2004/12/01,22:45,18.9,53,15.1,15.1
 2004/12/01,23:00,18.9,53,15.1,15.1
 2004/12/01,23:15,18.7,55,15.1,15.1
 2004/12/01,23:30,18.7,55,15.1,15.1
 2004/12/01,23:45,18.6,55,15.1,15.1
 2004/12/02, 0:00,18.5,55,15.3,15.3
 2004/12/02, 0:15,18.2,55,15.4,15.4
 2004/12/02, 0:30,18.2,55,15.5,15.5
 2004/12/02, 0:45,18,55,15.5,15.5
 2004/12/02, 1:00,17.9,55,15.5,15.5
 2004/12/02, 1:15,17.7,55,15.5,15.5
 2004/12/02, 1:30,17.5,55,15.5,15.5
 2004/12/02, 1:45,17.4,56,15.5,15.5
 2004/12/02, 2:00,17.4,56,15.4,15.4
 2004/12/02, 2:15,17.2,56,15.4,15.4
 2004/12/02, 2:30,17.2,56,15.4,15.4
 2004/12/02, 2:45,17.1,56,15.3,15.3
 2004/12/02, 3:00,17,56,15.3,15.3
 2004/12/02, 3:15,16.8,56,15.2,15.2
 2004/12/02, 3:30,16.8,56,15.2,15.2
 2004/12/02, 3:45,16.7,56,15.1,15.1
 2004/12/02, 4:00,16.5,56,15.1,15.1
 2004/12/02, 4:15,16.4,57,15,15
 2004/12/02, 4:30,16.4,57,15,15
 2004/12/02, 4:45,16.3,57,14.9,14.9
 2004/12/02, 5:00,16.3,57,14.9,14.9
 2004/12/02, 5:15,16.2,57,14.8,14.8
 2004/12/02, 5:30,16.1,58,14.8,14.8
 2004/12/02, 5:45,16,57,14.8,14.8
 2004/12/02, 6:00,16,57,14.7,14.7
 2004/12/02, 6:15,15.9,58,14.7,14.7
 2004/12/02, 6:30,15.7,58,14.7,14.7
 2004/12/02, 6:45,16.3,63,14.5,14.5
 2004/12/02, 7:00,16.8,61,14.5,14.5
 2004/12/02, 7:15,17.2,59,14.7,14.7
 2004/12/02, 7:30,17.5,59,14.8,14.8
 2004/12/02, 7:45,17.8,60,14.9,14.9
 2004/12/02, 8:00,18,59,14.7,14.7
 2004/12/02, 8:15,17.8,58,14.6,14.6
 2004/12/02, 8:30,17.7,56,14.7,14.7
 2004/12/02, 8:45,17.4,56,14.9,14.9
 2004/12/02, 9:00,17.2,56,15.1,15.1
 2004/12/02, 9:15,17.3,56,15.2,15.2
 2004/12/02, 9:30,17.5,56,15.2,15.2
 2004/12/02, 9:45,17.7,55,15.3,15.3
 2004/12/02,10:00,17.7,55,15.4,15.4
 2004/12/02,10:15,18.1,55,15.6,15.6
 2004/12/02,10:30,18.2,54,16,16
 2004/12/02,10:45,18.2,54,16.1,16.1
 2004/12/02,11:00,18.3,53,16.1,16.1
 2004/12/02,11:15,18.5,53,16.2,16.2
 2004/12/02,11:30,18.3,53,16.2,16.2
 2004/12/02,11:45,18.3,52,16.1,16.1
 2004/12/02,12:00,18.2,52,16.1,16.1
 2004/12/02,12:15,18.2,51,16,16
 2004/12/02,12:30,18.1,51,16,16
 2004/12/02,12:45,18.1,51,16,16
 2004/12/02,13:00,18,51,16,16
 2004/12/02,13:15,18,51,15.9,15.9
 2004/12/02,13:30,18,51,16,16
 2004/12/02,13:45,18.1,50,16.2,16.2
 2004/12/02,14:00,18.4,50,16.3,16.3
 2004/12/02,14:15,18.4,50,16.4,16.4
 2004/12/02,14:30,18.4,49,16.5,16.5
 2004/12/02,14:45,18.4,49,16.6,16.6
 2004/12/02,15:00,18.4,49,16.7,16.7
 2004/12/02,15:15,18.4,49,16.7,16.7
 2004/12/02,15:30,18.2,49,16.7,16.7
 2004/12/02,15:45,18.1,48,16.6,16.6
 2004/12/02,16:00,17.9,48,16.5,16.5
 2004/12/02,16:15,17.9,48,16.4,16.4
 2004/12/02,16:30,17.8,48,16.3,16.3
 2004/12/02,16:45,17.7,48,16.2,16.2
 2004/12/02,17:00,17.7,48,16.1,16.1
 2004/12/02,17:15,17.6,48,16.2,16.2
 2004/12/02,17:30,17.6,48,16.1,16.1
 2004/12/02,17:45,17.7,48,16,16
 2004/12/02,18:00,17.8,49,16,16
 2004/12/02,18:15,18.1,50,15.9,15.9
 2004/12/02,18:30,18.5,49,15.9,15.9
 2004/12/02,18:45,18.8,50,15.9,15.9
 2004/12/02,19:00,19,49,16,16
 2004/12/02,19:15,19.1,50,16.1,16.1
 2004/12/02,19:30,19.5,51,16.1,16.1
 2004/12/02,19:45,19.7,52,16.2,16.2
 2004/12/02,20:00,19.7,51,16.3,16.3
 2004/12/02,20:15,19.6,52,16.3,16.3
 2004/12/02,20:30,19.7,52,16.3,16.3
 2004/12/02,20:45,19.7,53,16.4,16.4
 2004/12/02,21:00,19.7,53,16.4,16.4
 2004/12/02,21:15,19.7,53,16.5,16.5
 2004/12/02,21:30,19.7,53,16.5,16.5
 2004/12/02,21:45,19.8,53,16.4,16.4
 2004/12/02,22:00,20,53,16.4,16.4
 2004/12/02,22:15,20,53,16.4,16.4
 2004/12/02,22:30,20.2,53,16.4,16.4
 2004/12/02,22:45,20.3,54,16.4,16.4
 2004/12/02,23:00,20.4,53,16.4,16.4
 2004/12/02,23:15,20.2,53,16.4,16.4
 2004/12/02,23:30,20,54,16.4,16.4
 2004/12/02,23:45,19.5,53,16.9,16.9
 2004/12/03, 0:00,19.2,53,17.1,17.1
 2004/12/03, 0:15,18.8,53,17.1,17.1
 2004/12/03, 0:30,18.6,53,17,17
 2004/12/03, 0:45,18.3,53,16.9,16.9
 2004/12/03, 1:00,18.1,53,16.8,16.8
 2004/12/03, 1:15,17.9,53,16.7,16.7
 2004/12/03, 1:30,17.7,53,16.5,16.5
 2004/12/03, 1:45,17.4,54,16.4,16.4
 2004/12/03, 2:00,17.3,54,16.3,16.3
 2004/12/03, 2:15,17.2,54,16.1,16.1
 2004/12/03, 2:30,17,54,16,16
 2004/12/03, 2:45,16.8,54,15.9,15.9
 2004/12/03, 3:00,16.7,54,15.8,15.8
 2004/12/03, 3:15,16.5,55,15.7,15.7
 2004/12/03, 3:30,16.3,55,15.6,15.6
 2004/12/03, 3:45,16.3,55,15.5,15.5
 2004/12/03, 4:00,16.2,55,15.4,15.4
 2004/12/03, 4:15,16.1,55,15.3,15.3
 2004/12/03, 4:30,16,55,15.2,15.2
 2004/12/03, 4:45,15.9,56,15.1,15.1
 2004/12/03, 5:00,15.7,56,15,15
 2004/12/03, 5:15,15.6,56,14.9,14.9
 2004/12/03, 5:30,15.6,56,14.8,14.8
 2004/12/03, 5:45,15.4,56,14.8,14.8
 2004/12/03, 6:00,15.3,58,14.7,14.7
 2004/12/03, 6:15,15.2,59,14.7,14.7
 2004/12/03, 6:30,15.8,58,14.8,14.8
 2004/12/03, 6:45,16.4,60,14.5,14.5
 2004/12/03, 7:00,16.8,59,14.4,14.4
 2004/12/03, 7:15,17.7,57,14.3,14.3
 2004/12/03, 7:30,18.6,51,14.3,14.3
 2004/12/03, 7:45,19,50,14.3,14.3
 2004/12/03, 8:00,19.2,49,14.4,14.4
 2004/12/03, 8:15,19.5,49,14.8,14.8
 2004/12/03, 8:30,19.7,47,15,15
 2004/12/03, 8:45,19.2,48,15,15
 2004/12/03, 9:00,19.9,46,15.2,15.2
 2004/12/03, 9:15,19.2,48,15.4,15.4
 2004/12/03, 9:30,19.2,48,15.7,15.7
 2004/12/03, 9:45,19.1,48,15.9,15.9
 2004/12/03,10:00,19.2,48,16.2,16.2
 2004/12/03,10:15,19.2,48,16.4,16.4
 2004/12/03,10:30,19.2,48,16.6,16.6
 2004/12/03,10:45,19.3,48,16.8,16.8
 2004/12/03,11:00,19.2,48,16.9,16.9
 2004/12/03,11:15,19.3,47,17,17
 2004/12/03,11:30,19.5,47,17.2,17.2
 2004/12/03,11:45,19.6,47,17.4,17.4
 2004/12/03,12:00,19.7,47,17.5,17.5
 2004/12/03,12:15,19.7,47,17.6,17.6
 2004/12/03,12:30,19.8,47,17.7,17.7
 2004/12/03,12:45,19.9,47,17.9,17.9
 2004/12/03,13:00,19.9,47,18,18
 2004/12/03,13:15,19.9,47,18.1,18.1
 2004/12/03,13:30,19.9,47,18.1,18.1
 2004/12/03,13:45,19.8,48,18.2,18.2
 2004/12/03,14:00,19.9,48,18.2,18.2
 2004/12/03,14:15,19.9,48,18.1,18.1
 2004/12/03,14:30,19.7,48,18.1,18.1
 2004/12/03,14:45,19.5,48,18,18
 2004/12/03,15:00,19.3,48,17.9,17.9
 2004/12/03,15:15,19.3,48,17.9,17.9
 2004/12/03,15:30,19.2,49,17.8,17.8
 2004/12/03,15:45,19.2,49,17.8,17.8
 2004/12/03,16:00,19,49,17.8,17.8
 2004/12/03,16:15,19.1,50,17.7,17.7
 2004/12/03,16:30,19,50,17.7,17.7
 2004/12/03,16:45,18.9,50,17.7,17.7
 2004/12/03,17:00,18.9,50,17.8,17.8
 2004/12/03,17:15,18.9,50,17.9,17.9
 2004/12/03,17:30,18.9,50,17.8,17.8
 2004/12/03,17:45,19,50,17.6,17.6
 2004/12/03,18:00,18.9,50,17.5,17.5
 2004/12/03,18:15,18.8,50,17.3,17.3
 2004/12/03,18:30,18.9,51,17.1,17.1
 2004/12/03,18:45,19.2,51,16.9,16.9
 2004/12/03,19:00,19.3,53,16.8,16.8
 2004/12/03,19:15,19.6,54,16.8,16.8
 2004/12/03,19:30,19.6,54,16.6,16.6
 2004/12/03,19:45,19.5,54,16.6,16.6
 2004/12/03,20:00,19.4,54,16.5,16.5
 2004/12/03,20:15,19.3,55,16.4,16.4
 2004/12/03,20:30,19.2,55,16.4,16.4
 2004/12/03,20:45,19.2,55,16.3,16.3
 2004/12/03,21:00,19.2,55,16.2,16.2
 2004/12/03,21:15,19.2,55,16.2,16.2
 2004/12/03,21:30,19.2,56,16.2,16.2
 2004/12/03,21:45,19.3,56,16.4,16.4
 2004/12/03,22:00,19.5,56,16.3,16.3
 2004/12/03,22:15,19.6,58,16.3,16.3
 2004/12/03,22:30,19.7,59,16.3,16.3
 2004/12/03,22:45,19.7,58,16.3,16.3
 2004/12/03,23:00,19.7,59,16.4,16.4
 2004/12/03,23:15,19.7,59,16.5,16.5
 2004/12/03,23:30,19.4,59,16.6,16.6
 2004/12/03,23:45,19.3,59,16.6,16.6
 2004/12/04, 0:00,19.2,58,16.6,16.6
 2004/12/04, 0:15,19.2,58,16.6,16.6
 2004/12/04, 0:30,19,58,16.5,16.5
 2004/12/04, 0:45,18.9,59,16.5,16.5
 2004/12/04, 1:00,18.7,59,16.5,16.5
 2004/12/04, 1:15,18.7,59,16.5,16.5
 2004/12/04, 1:30,18.6,59,16.4,16.4
 2004/12/04, 1:45,18.4,59,16.4,16.4
 2004/12/04, 2:00,18.4,59,16.3,16.3
 2004/12/04, 2:15,18.2,59,16.3,16.3
 2004/12/04, 2:30,18.2,59,16.2,16.2
 2004/12/04, 2:45,18.1,59,16.2,16.2
 2004/12/04, 3:00,18.1,59,16.1,16.1
 2004/12/04, 3:15,17.9,59,16.1,16.1
 2004/12/04, 3:30,17.9,60,16,16
 2004/12/04, 3:45,17.8,60,16,16
 2004/12/04, 4:00,17.7,60,16,16
 2004/12/04, 4:15,17.7,60,15.9,15.9
 2004/12/04, 4:30,17.6,60,15.9,15.9
 2004/12/04, 4:45,17.6,60,15.8,15.8
 2004/12/04, 5:00,17.4,60,15.8,15.8
 2004/12/04, 5:15,17.3,61,15.7,15.7
 2004/12/04, 5:30,17.3,60,15.7,15.7
 2004/12/04, 5:45,17.3,60,15.6,15.6
 2004/12/04, 6:00,17.2,61,15.6,15.6
 2004/12/04, 6:15,17.2,61,15.6,15.6
 2004/12/04, 6:30,17.1,61,15.6,15.6
 2004/12/04, 6:45,17.1,61,15.5,15.5
 2004/12/04, 7:00,17.1,61,15.5,15.5
 2004/12/04, 7:15,17,61,15.5,15.5
 2004/12/04, 7:30,16.9,61,15.4,15.4
 2004/12/04, 7:45,16.9,61,15.5,15.5
 2004/12/04, 8:00,16.9,62,15.6,15.6
 2004/12/04, 8:15,17,63,15.7,15.7
 2004/12/04, 8:30,17.2,63,15.9,15.9
 2004/12/04, 8:45,17.5,64,16,16
 2004/12/04, 9:00,17.9,65,15.8,15.8
 2004/12/04, 9:15,18.2,64,15.9,15.9
 2004/12/04, 9:30,18.1,64,16.1,16.1
 2004/12/04, 9:45,18.1,65,16.2,16.2
 2004/12/04,10:00,18.2,65,16.5,16.5
 2004/12/04,10:15,18.3,65,16.5,16.5
 2004/12/04,10:30,18.5,64,16.5,16.5
 2004/12/04,10:45,18.4,64,16.6,16.6
 2004/12/04,11:00,18.6,64,16.8,16.8
 2004/12/04,11:15,18.7,65,16.9,16.9
 2004/12/04,11:30,18.8,65,16.9,16.9
 2004/12/04,11:45,18.8,64,17,17
 2004/12/04,12:00,18.8,64,17.1,17.1
 2004/12/04,12:15,18.9,64,17.2,17.2
 2004/12/04,12:30,19,64,17.5,17.5
 2004/12/04,12:45,19.3,64,17.6,17.6
 2004/12/04,13:00,19.2,63,17.9,17.9
 2004/12/04,13:15,19.2,63,18,18
 2004/12/04,13:30,19.2,63,18,18
 2004/12/04,13:45,19.1,65,17.9,17.9
 2004/12/04,14:00,19.3,72,17.7,17.7
 2004/12/04,14:15,19.4,72,17.6,17.6
 2004/12/04,14:30,19.4,71,17.5,17.5
 2004/12/04,14:45,19.3,72,17.4,17.4
 2004/12/04,15:00,19.4,72,17.4,17.4
 2004/12/04,15:15,19.4,72,17.3,17.3
 2004/12/04,15:30,19.5,73,17.3,17.3
 2004/12/04,15:45,19.5,73,17.3,17.3
 2004/12/04,16:00,19.5,73,17.2,17.2
 2004/12/04,16:15,19.5,73,17.2,17.2
 2004/12/04,16:30,19.5,73,17.1,17.1
 2004/12/04,16:45,19.5,73,17.2,17.2
 2004/12/04,17:00,19.5,72,17.1,17.1
 2004/12/04,17:15,19.7,72,17,17
 2004/12/04,17:30,19.8,71,17,17
 2004/12/04,17:45,19.9,71,16.9,16.9
 2004/12/04,18:00,20,73,16.9,16.9
 2004/12/04,18:15,20.2,75,16.8,16.8
 2004/12/04,18:30,20.3,75,16.8,16.8
 2004/12/04,18:45,20.3,74,16.8,16.8
 2004/12/04,19:00,20.2,73,16.8,16.8
 2004/12/04,19:15,20.3,73,16.7,16.7
 2004/12/04,19:30,20.4,73,16.6,16.6
 2004/12/04,19:45,20.4,72,16.6,16.6
 2004/12/04,20:00,20.4,71,16.5,16.5
 2004/12/04,20:15,20.3,69,16.6,16.6
 2004/12/04,20:30,20.3,68,16.7,16.7
 2004/12/04,20:45,20.3,68,16.8,16.8
 2004/12/04,21:00,20.4,69,16.8,16.8
 2004/12/04,21:15,20.5,70,16.8,16.8
 2004/12/04,21:30,20.5,70,16.8,16.8
 2004/12/04,21:45,20.5,70,16.8,16.8
 2004/12/04,22:00,20.6,69,16.8,16.8
 2004/12/04,22:15,20.7,68,16.8,16.8
 2004/12/04,22:30,20.8,68,16.8,16.8
 2004/12/04,22:45,20.9,67,16.8,16.8
 2004/12/04,23:00,21,68,16.8,16.8
 2004/12/04,23:15,20.9,68,16.8,16.8
 2004/12/04,23:30,20.8,67,17.1,17.1
 2004/12/04,23:45,20.6,68,17.1,17.1
 2004/12/05, 0:00,20.4,68,17.1,17.1
 2004/12/05, 0:15,20.2,68,17.1,17.1
 2004/12/05, 0:30,20.1,69,17.1,17.1
 2004/12/05, 0:45,20,69,17.1,17.1
 2004/12/05, 1:00,19.8,69,17.1,17.1
 2004/12/05, 1:15,19.7,69,17.1,17.1
 2004/12/05, 1:30,19.6,70,17.1,17.1
 2004/12/05, 1:45,19.5,70,17,17
 2004/12/05, 2:00,19.3,70,17,17
 2004/12/05, 2:15,19.3,70,17,17
 2004/12/05, 2:30,19.2,71,17.2,17.2
 2004/12/05, 2:45,19.2,72,17.2,17.2
 2004/12/05, 3:00,19.2,73,17.2,17.2
 2004/12/05, 3:15,19.2,73,17.2,17.2
 2004/12/05, 3:30,19.2,73,17.2,17.2
 2004/12/05, 3:45,19.1,73,17.2,17.2
 2004/12/05, 4:00,19,73,17.2,17.2
 2004/12/05, 4:15,19,73,17.2,17.2
 2004/12/05, 4:30,18.9,73,17.1,17.1
 2004/12/05, 4:45,18.9,73,17.1,17.1
 2004/12/05, 5:00,18.8,73,17.1,17.1
 2004/12/05, 5:15,18.8,73,17.1,17.1
 2004/12/05, 5:30,18.8,73,17.1,17.1
 2004/12/05, 5:45,18.7,73,17.1,17.1
 2004/12/05, 6:00,18.7,73,17.1,17.1
 2004/12/05, 6:15,18.6,73,17.1,17.1
 2004/12/05, 6:30,18.6,73,17.1,17.1
 2004/12/05, 6:45,18.7,73,17.1,17.1
 2004/12/05, 7:00,18.9,74,17.1,17.1
 2004/12/05, 7:15,19.2,74,17.3,17.3
 2004/12/05, 7:30,19.2,73,17.2,17.2
 2004/12/05, 7:45,19.3,73,17.2,17.2
 2004/12/05, 8:00,19.3,73,17.2,17.2
 2004/12/05, 8:15,19.2,72,17.4,17.4
 2004/12/05, 8:30,19.2,72,17.6,17.6
 2004/12/05, 8:45,19.2,71,17.6,17.6
 2004/12/05, 9:00,19.3,71,17.6,17.6
 2004/12/05, 9:15,19.6,71,17.7,17.7
 2004/12/05, 9:30,19.9,70,17.8,17.8
 2004/12/05, 9:45,20.1,69,18.1,18.1
 2004/12/05,10:00,19.9,65,18.2,18.2
 2004/12/05,10:15,19.7,64,18.2,18.2
 2004/12/05,10:30,19.9,66,18.2,18.2
 2004/12/05,10:45,20,66,18.3,18.3
 2004/12/05,11:00,20,65,18.3,18.3
 2004/12/05,11:15,20.1,64,18.3,18.3
 2004/12/05,11:30,20.3,64,18.4,18.4
 2004/12/05,11:45,20.2,63,18.4,18.4
 2004/12/05,12:00,20.7,61,18.5,18.5
 2004/12/05,12:15,20.8,61,18.8,18.8
 2004/12/05,12:30,20.9,62,18.8,18.8
 2004/12/05,12:45,21,60,18.8,18.8
 2004/12/05,13:00,21.1,58,18.9,18.9
 2004/12/05,13:15,21.1,56,18.9,18.9
 2004/12/05,13:30,21.1,55,19,19
 2004/12/05,13:45,21.2,54,19,19
 2004/12/05,14:00,21.2,54,19.1,19.1
 2004/12/05,14:15,21.1,52,19.1,19.1
 2004/12/05,14:30,21,49,18.9,18.9
 2004/12/05,14:45,20.8,50,19,19
 2004/12/05,15:00,20.4,46,18.8,18.8
 2004/12/05,15:15,20.4,49,18.7,18.7
 2004/12/05,15:30,20.4,50,18.7,18.7
 2004/12/05,15:45,20.4,51,18.7,18.7
 2004/12/05,16:00,20.4,51,18.7,18.7
 2004/12/05,16:15,20.4,52,18.7,18.7
 2004/12/05,16:30,20.5,52,18.6,18.6
 2004/12/05,16:45,20.6,52,18.4,18.4
 2004/12/05,17:00,20.7,52,18.4,18.4
 2004/12/05,17:15,20.9,51,18.3,18.3
 2004/12/05,17:30,21.1,52,18.1,18.1
 2004/12/05,17:45,21.1,52,17.9,17.9
 2004/12/05,18:00,21.1,52,17.7,17.7
 2004/12/05,18:15,21.1,54,17.6,17.6
 2004/12/05,18:30,21.2,54,17.5,17.5
 2004/12/05,18:45,21.2,54,17.4,17.4
 2004/12/05,19:00,21.4,54,17.3,17.3
 2004/12/05,19:15,21.5,54,17.2,17.2
 2004/12/05,19:30,21.7,54,17.1,17.1
 2004/12/05,19:45,21.7,54,17,17
 2004/12/05,20:00,21.7,54,16.9,16.9
 2004/12/05,20:15,21.5,53,16.8,16.8
 2004/12/05,20:30,21.4,52,16.7,16.7
 2004/12/05,20:45,21.3,52,16.7,16.7
 2004/12/05,21:00,21.1,51,16.8,16.8
 2004/12/05,21:15,21.1,52,16.8,16.8
 2004/12/05,21:30,21.1,53,16.7,16.7
 2004/12/05,21:45,21.1,53,16.6,16.6
 2004/12/05,22:00,21.2,54,16.6,16.6
 2004/12/05,22:15,21.3,54,16.6,16.6
 2004/12/05,22:30,21.2,54,16.5,16.5
 2004/12/05,22:45,21.1,54,16.5,16.5
 2004/12/05,23:00,21.1,55,16.5,16.5
 2004/12/05,23:15,21.1,54,16.4,16.4
 2004/12/05,23:30,21,54,16.4,16.4
 2004/12/05,23:45,20.7,54,16.4,16.4
 2004/12/06, 0:00,20.5,55,16.4,16.4
 2004/12/06, 0:15,20.3,55,16.4,16.4
 2004/12/06, 0:30,20.2,55,16.4,16.4
 2004/12/06, 0:45,20,55,16.3,16.3
 2004/12/06, 1:00,19.7,55,16.2,16.2
 2004/12/06, 1:15,19.6,55,16.2,16.2
 2004/12/06, 1:30,19.5,55,16.1,16.1
 2004/12/06, 1:45,19.3,55,16,16
 2004/12/06, 2:00,19.2,55,16,16
 2004/12/06, 2:15,19.2,55,16,16
 2004/12/06, 2:30,18.9,55,15.9,15.9
 2004/12/06, 2:45,18.9,56,15.9,15.9
 2004/12/06, 3:00,18.8,56,15.8,15.8
 2004/12/06, 3:15,18.7,56,15.8,15.8
 2004/12/06, 3:30,18.5,56,15.8,15.8
 2004/12/06, 3:45,18.5,57,15.7,15.7
 2004/12/06, 4:00,18.4,56,15.6,15.6
 2004/12/06, 4:15,18.2,56,15.5,15.5
 2004/12/06, 4:30,18,56,15.4,15.4
 2004/12/06, 4:45,18,56,15.4,15.4
 2004/12/06, 5:00,17.9,56,15.3,15.3
 2004/12/06, 5:15,17.8,56,15.3,15.3
 2004/12/06, 5:30,17.7,56,15.2,15.2
 2004/12/06, 5:45,17.6,56,15.1,15.1
 2004/12/06, 6:00,17.5,56,15.1,15.1
 2004/12/06, 6:15,17.7,56,15.3,15.3
 2004/12/06, 6:30,18.1,56,15.2,15.2
 2004/12/06, 6:45,18.6,57,15.5,15.5
 2004/12/06, 7:00,18.6,52,15.2,15.2
 2004/12/06, 7:15,19.5,53,15.1,15.1
 2004/12/06, 7:30,20.9,50,14.9,14.9
 2004/12/06, 7:45,21.8,48,14.9,14.9
 2004/12/06, 8:00,22.6,46,14.8,14.8
 2004/12/06, 8:15,22.8,45,15,15
 2004/12/06, 8:30,22.2,42,15.6,15.6
 2004/12/06, 8:45,23,40,16,16
 2004/12/06, 9:00,22.6,39,16.2,16.2
 2004/12/06, 9:15,21.2,41,16.3,16.3
 2004/12/06, 9:30,20.4,42,16.3,16.3
 2004/12/06, 9:45,20.1,43,16.2,16.2
 2004/12/06,10:00,20.2,43,16.3,16.3
 2004/12/06,10:15,20.2,43,16.4,16.4
 2004/12/06,10:30,20.2,43,16.4,16.4
 2004/12/06,10:45,20.3,43,16.5,16.5
 2004/12/06,11:00,20.3,43,16.6,16.6
 2004/12/06,11:15,20.4,42,16.8,16.8
 2004/12/06,11:30,20.4,42,16.9,16.9
 2004/12/06,11:45,20.4,42,17,17
 2004/12/06,12:00,20.5,42,17.1,17.1
 2004/12/06,12:15,20.5,41,17.2,17.2
 2004/12/06,12:30,20.6,41,17.3,17.3
 2004/12/06,12:45,20.6,41,17.4,17.4
 2004/12/06,13:00,20.6,41,17.5,17.5
 2004/12/06,13:15,20.6,41,17.6,17.6
 2004/12/06,13:30,20.6,41,17.7,17.7
 2004/12/06,13:45,20.5,41,17.8,17.8
 2004/12/06,14:00,20.5,41,17.9,17.9
 2004/12/06,14:15,20.4,42,18.1,18.1
 2004/12/06,14:30,20.4,42,18.1,18.1
 2004/12/06,14:45,20.4,43,18.2,18.2
 2004/12/06,15:00,20.4,43,18.3,18.3
 2004/12/06,15:15,20.2,44,18.3,18.3
 2004/12/06,15:30,20.1,44,18.3,18.3
 2004/12/06,15:45,20,44,18.2,18.2
 2004/12/06,16:00,20,44,18.1,18.1
 2004/12/06,16:15,20,44,18,18
 2004/12/06,16:30,20,44,17.9,17.9
 2004/12/06,16:45,19.8,44,18,18
 2004/12/06,17:00,19.9,45,18,18
 2004/12/06,17:15,19.9,45,17.8,17.8
 2004/12/06,17:30,20.1,46,17.5,17.5
 2004/12/06,17:45,20.1,47,17.3,17.3
 2004/12/06,18:00,20.2,47,17.2,17.2
 2004/12/06,18:15,20.2,47,17,17
 2004/12/06,18:30,20.2,47,16.9,16.9
 2004/12/06,18:45,20.2,46,16.8,16.8
 2004/12/06,19:00,20.2,46,16.6,16.6
 2004/12/06,19:15,20.2,46,16.5,16.5
 2004/12/06,19:30,20.4,46,16.4,16.4
 2004/12/06,19:45,20.3,47,16.4,16.4
 2004/12/06,20:00,20.3,47,16.3,16.3
 2004/12/06,20:15,20.2,47,16.2,16.2
 2004/12/06,20:30,20.2,47,16.2,16.2
 2004/12/06,20:45,20.2,48,16.1,16.1
 2004/12/06,21:00,20.2,49,16.1,16.1
 2004/12/06,21:15,20.3,49,16.3,16.3
 2004/12/06,21:30,20.4,49,16.4,16.4
 2004/12/06,21:45,20.5,49,16.4,16.4
 2004/12/06,22:00,20.5,49,16.5,16.5
 2004/12/06,22:15,20.6,49,16.5,16.5
 2004/12/06,22:30,20.6,50,16.5,16.5
 2004/12/06,22:45,20.5,51,16.5,16.5
 2004/12/06,23:00,20.3,51,16.4,16.4
 2004/12/06,23:15,20.4,51,16.1,16.1
 2004/12/06,23:30,20.3,52,16,16
 2004/12/06,23:45,20.2,51,16,16
 2004/12/07, 0:00,19.9,51,16,16
 2004/12/07, 0:15,19.6,51,16.1,16.1
 2004/12/07, 0:30,19.4,51,16.1,16.1
 2004/12/07, 0:45,19.2,50,16.6,16.6
 2004/12/07, 1:00,18.9,50,16.8,16.8
 2004/12/07, 1:15,18.6,50,16.8,16.8
 2004/12/07, 1:30,18.4,50,16.7,16.7
 2004/12/07, 1:45,18.1,50,16.6,16.6
 2004/12/07, 2:00,17.9,50,16.5,16.5
 2004/12/07, 2:15,17.7,50,16.4,16.4
 2004/12/07, 2:30,17.5,50,16.3,16.3
 2004/12/07, 2:45,17.3,50,16.2,16.2
 2004/12/07, 3:00,17.1,51,16.1,16.1
 2004/12/07, 3:15,16.9,51,16,16
 2004/12/07, 3:30,16.8,51,15.9,15.9
 2004/12/07, 3:45,16.7,52,15.8,15.8
 2004/12/07, 4:00,16.5,52,15.7,15.7
 2004/12/07, 4:15,16.4,52,15.6,15.6
 2004/12/07, 4:30,16.2,52,15.5,15.5
 2004/12/07, 4:45,16.1,53,15.4,15.4
 2004/12/07, 5:00,16,53,15.3,15.3
 2004/12/07, 5:15,15.8,53,15.2,15.2
 2004/12/07, 5:30,15.7,53,15.1,15.1
 2004/12/07, 5:45,15.6,53,15,15
 2004/12/07, 6:00,15.6,53,14.9,14.9
 2004/12/07, 6:15,15.7,54,14.8,14.8
 2004/12/07, 6:30,16.3,56,14.8,14.8
 2004/12/07, 6:45,16.7,57,14.8,14.8
 2004/12/07, 7:00,16.8,52,14.9,14.9
 2004/12/07, 7:15,17.2,53,14.8,14.8
 2004/12/07, 7:30,17.3,55,14.7,14.7
 2004/12/07, 7:45,17.2,54,14.6,14.6
 2004/12/07, 8:00,17,54,14.6,14.6
 2004/12/07, 8:15,16.7,54,14.7,14.7
 2004/12/07, 8:30,16.5,54,15,15
 2004/12/07, 8:45,16.3,54,15,15
 2004/12/07, 9:00,16.2,54,15,15
 2004/12/07, 9:15,16,54,14.9,14.9
 2004/12/07, 9:30,15.9,54,14.9,14.9
 2004/12/07, 9:45,15.9,54,14.8,14.8
 2004/12/07,10:00,16.2,53,14.8,14.8
 2004/12/07,10:15,16.3,53,14.9,14.9
 2004/12/07,10:30,16.5,53,14.9,14.9
 2004/12/07,10:45,16.7,53,14.9,14.9
 2004/12/07,11:00,17,52,15.1,15.1
 2004/12/07,11:15,17.3,51,15.3,15.3
 2004/12/07,11:30,17.4,51,15.5,15.5
 2004/12/07,11:45,17.3,51,15.5,15.5
 2004/12/07,12:00,17.6,51,15.7,15.7
 2004/12/07,12:15,17.8,51,15.9,15.9
 2004/12/07,12:30,17.8,51,16,16
 2004/12/07,12:45,18,50,16,16
 2004/12/07,13:00,18.3,49,16.1,16.1
 2004/12/07,13:15,18.5,48,16.2,16.2
 2004/12/07,13:30,18.6,47,16.3,16.3
 2004/12/07,13:45,18.6,46,16.5,16.5
 2004/12/07,14:00,18.7,45,16.6,16.6
 2004/12/07,14:15,18.7,44,16.6,16.6
 2004/12/07,14:30,18.6,43,16.6,16.6
 2004/12/07,14:45,18.4,42,16.6,16.6
 2004/12/07,15:00,18.3,41,16.6,16.6
 2004/12/07,15:15,18,41,16.6,16.6
 2004/12/07,15:30,17.8,41,16.6,16.6
 2004/12/07,15:45,17.7,41,16.5,16.5
 2004/12/07,16:00,17.8,43,16.5,16.5
 2004/12/07,16:15,17.7,45,16.4,16.4
 2004/12/07,16:30,17.8,46,16.4,16.4
 2004/12/07,16:45,17.8,47,16.4,16.4
 2004/12/07,17:00,17.8,47,16.4,16.4
 2004/12/07,17:15,18,48,16.4,16.4
 2004/12/07,17:30,18.4,48,16.2,16.2
 2004/12/07,17:45,18.5,49,16.1,16.1
 2004/12/07,18:00,18.6,49,15.9,15.9
 2004/12/07,18:15,18.7,50,15.8,15.8
 2004/12/07,18:30,18.7,50,15.7,15.7
 2004/12/07,18:45,18.9,50,15.6,15.6
 2004/12/07,19:00,18.9,50,15.5,15.5
 2004/12/07,19:15,19.1,50,15.4,15.4
 2004/12/07,19:30,19.3,51,15.4,15.4
 2004/12/07,19:45,19.4,51,15.4,15.4